DW6133 Weather Reports


time (UTC)temp
C
wind
direction
speed
KPH
gust
KPH
rain 1hr
cm
rain 24hr
cm
rain mn
cm
humidity
%
barometer
mb
20260503225035 29 124 0.0 0.0 0.00 0.00 0.00 42 1008.8
20260503224533 29 248 0.0 0.0 0.00 0.00 0.00 42 1008.9
20260503224033 30 118 0.0 0.0 0.00 0.00 0.00 41 1009.0
20260503223532 30 156 0.0 0.0 0.00 0.00 0.00 43 1009.1
20260503223031 30 204 0.0 0.0 0.00 0.00 0.00 43 1009.1
20260503222531 30 241 0.0 0.0 0.00 0.00 0.00 41 1009.2
20260503222030 30 114 0.0 0.0 0.00 0.00 0.00 43 1009.2
20260503221538 30 129 0.0 0.0 0.00 0.00 0.00 40 1009.3
20260503221029 30 238 0.0 0.0 0.00 0.00 0.00 40 1009.3
20260503220529 30 263 0.0 0.0 0.00 0.00 0.00 41 1009.4
20260503220028 30 297 0.0 0.0 0.00 0.00 0.00 41 1009.4
20260503215526 30 232 0.0 0.0 0.00 0.00 0.00 42 1009.4
20260503215026 30 201 0.0 0.0 0.00 0.00 0.00 41 1009.5
20260503214526 30 194 0.0 0.0 0.00 0.00 0.00 41 1009.6
20260503214025 30 248 0.0 0.0 0.00 0.00 0.00 40 1009.6
20260503213526 30 218 0.0 0.0 0.00 0.00 0.00 41 1009.7
20260503213030 30 117 0.0 0.0 0.00 0.00 0.00 40 1009.7
20260503212523 30 221 0.0 0.0 0.00 0.00 0.00 42 1009.8
20260503212022 30 224 0.0 0.0 0.00 0.00 0.00 41 1009.8
20260503211522 30 108 0.0 0.0 0.00 0.00 0.00 39 1009.8
20260503211020 30 121 0.0 0.0 0.00 0.00 0.00 43 1009.9
20260503210520 30 294 0.0 0.0 0.00 0.00 0.00 42 1009.9
20260503210019 30 240 0.0 0.0 0.00 0.00 0.00 40 1010.0
20260503205518 30 140 0.0 0.0 0.00 0.00 0.00 42 1010.1
20260503205024 30 236 0.0 0.0 0.00 0.00 0.00 41 1010.1
20260503204523 30 121 0.0 0.0 0.00 0.00 0.00 43 1010.2
20260503204014 29 100 0.0 0.0 0.00 0.00 0.00 45 1010.2
20260503203514 29 242 0.0 0.0 0.00 0.00 0.00 42 1010.3
20260503203011 29 243 0.0 0.0 0.00 0.00 0.00 42 1010.4
20260503202514 29 243 0.0 0.0 0.00 0.00 0.00 43 1010.4
20260503202009 28 235 0.0 0.0 0.00 0.00 0.00 45 1010.5
20260503201523 28 213 0.0 0.0 0.00 0.00 0.00 42 1010.5
20260503201008 28 85 0.0 0.0 0.00 0.00 0.00 45 1010.7
20260503200506 28 232 0.0 0.0 0.00 0.00 0.00 44 1010.7
20260503200004 28 199 0.0 0.0 0.00 0.00 0.00 44 1010.8
20260503195503 28 123 0.0 0.0 0.00 0.00 0.00 45 1010.9
20260503195001 27 257 0.0 0.0 0.00 0.00 0.00 45 1011.0
20260503194503 27 114 0.0 0.0 0.00 0.00 0.00 43 1011.0
20260503194100 27 262 0.0 0.0 0.00 0.00 0.00 46 1011.1
20260503193559 27 215 0.0 0.0 0.00 0.00 0.00 48 1011.1
20260503193118 27 221 0.0 0.0 0.00 0.00 0.00 46 1011.2
20260503192556 27 228 0.0 1.6 0.00 0.00 0.00 45 1011.3
20260503192058 27 233 0.0 1.6 0.00 0.00 0.00 44 1011.4
20260503191600 26 250 0.0 1.6 0.00 0.00 0.00 48 1011.5
20260503191059 26 243 0.0 0.0 0.00 0.00 0.00 45 1011.4
20260503190555 27 266 0.0 0.0 0.00 0.00 0.00 45 1011.4
20260503190054 27 256 0.0 0.0 0.00 0.00 0.00 46 1011.5
20260503185552 27 28 0.0 0.0 0.00 0.00 0.00 46 1011.5
20260503185052 26 249 0.0 0.0 0.00 0.00 0.00 46 1011.6
20260503184551 26 319 0.0 0.0 0.00 0.00 0.00 47 1011.6
20260503184051 26 239 0.0 0.0 0.00 0.00 0.00 45 1011.7
20260503183550 26 240 0.0 0.0 0.00 0.00 0.00 47 1011.8
20260503183049 26 252 0.0 0.0 0.00 0.00 0.00 47 1011.8
20260503182547 26 226 0.0 0.0 0.00 0.00 0.00 49 1011.9
20260503182046 25 134 0.0 1.6 0.00 0.00 0.00 49 1011.9
20260503181617 25 207 0.0 1.6 0.00 0.00 0.00 48 1011.9
20260503181046 25 224 0.0 0.0 0.00 0.00 0.00 48 1011.9
20260503180545 26 183 0.0 0.0 0.00 0.00 0.00 48 1011.9
20260503180045 26 276 0.0 0.0 0.00 0.00 0.00 49 1011.9
20260503175542 25 54 0.0 0.0 0.00 0.00 0.00 52 1012.0
20260503175041 25 44 0.0 0.0 0.00 0.00 0.00 54 1012.1
20260503174541 25 60 0.0 0.0 0.00 0.00 0.00 52 1012.1
20260503174040 25 66 0.0 0.0 0.00 0.00 0.00 53 1012.1
20260503173540 25 76 0.0 0.0 0.00 0.00 0.00 53 1012.1
20260503173051 25 82 0.0 0.0 0.00 0.00 0.00 55 1012.2
20260503172536 24 82 0.0 0.0 0.00 0.00 0.00 57 1012.2
20260503172035 24 68 0.0 0.0 0.00 0.00 0.00 59 1012.3
20260503171534 23 68 0.0 0.0 0.00 0.00 0.00 56 1012.3
20260503171034 23 80 0.0 0.0 0.00 0.00 0.00 57 1012.3
20260503170533 23 65 0.0 0.0 0.00 0.00 0.00 58 1012.3
20260503150558 14 81 0.0 0.0 0.00 0.00 0.00 94 1012.7
20260503150106 13 80 0.0 0.0 0.00 0.00 0.00 94 1012.7
20260503131051 10 160 0.0 0.0 0.00 0.00 0.00 92 1012.4
20260503130553 10 160 0.0 0.0 0.00 0.00 0.00 91 1012.4
20260503110542 11 160 0.0 0.0 0.00 0.00 0.00 87 1012.7
20260503081520 13 141 0.0 0.0 0.00 0.00 0.00 73 1012.8
20260503081020 13 141 0.0 0.0 0.00 0.00 0.00 72 1012.8
20260503080519 13 141 0.0 0.0 0.00 0.00 0.00 72 1012.8
20260503072515 13 141 0.0 0.0 0.00 0.00 0.00 72 1012.7
20260503072015 13 193 0.0 0.0 0.00 0.00 0.00 72 1012.7
20260503071524 13 203 0.0 0.0 0.00 0.00 0.00 72 1012.6
20260503071014 13 203 0.0 0.0 0.00 0.00 0.00 72 1012.7
20260503070514 13 203 0.0 0.0 0.00 0.00 0.00 72 1012.7
20260503055010 15 228 0.0 0.0 0.00 0.00 0.00 70 1012.5
20260503054515 15 228 0.0 0.0 0.00 0.00 0.00 69 1012.5
20260503054013 15 228 0.0 0.0 0.00 0.00 0.00 69 1012.5
20260503053610 15 228 0.0 0.0 0.00 0.00 0.00 68 1012.5
20260503053010 15 228 0.0 0.0 0.00 0.00 0.00 67 1012.6
20260503052512 15 228 0.0 0.0 0.00 0.00 0.00 67 1012.6
20260503052008 15 227 0.0 0.0 0.00 0.00 0.00 67 1012.6
20260503051509 15 228 0.0 0.0 0.00 0.00 0.00 67 1012.5
20260503051017 15 228 0.0 0.0 0.00 0.00 0.00 67 1012.6
20260503050511 15 228 0.0 0.0 0.00 0.00 0.00 66 1012.5
20260503050008 15 227 0.0 0.0 0.00 0.00 0.00 67 1012.5
20260503045510 15 228 0.0 0.0 0.00 0.00 0.00 67 1012.5
20260503045010 15 228 0.0 0.0 0.00 0.00 0.00 67 1012.4
20260503044629 15 228 0.0 0.0 0.00 0.00 0.00 67 1012.4
20260503044007 15 228 0.0 0.0 0.00 0.00 0.00 67 1012.3
20260503043507 16 227 0.0 0.0 0.00 0.00 0.00 67 1012.3
20260503043007 16 227 0.0 0.0 0.00 0.00 0.00 67 1012.3
20260503042506 16 228 0.0 0.0 0.00 0.00 0.00 66 1012.3
20260503042006 16 227 0.0 0.0 0.00 0.00 0.00 66 1012.2
20260503041506 16 227 0.0 0.0 0.00 0.00 0.00 65 1012.2
20260503041006 16 228 0.0 0.0 0.00 0.00 0.00 65 1012.1
20260503040511 16 228 0.0 0.0 0.00 0.00 0.00 65 1012.1
20260503040011 16 227 0.0 0.0 0.00 0.00 0.00 65 1012.0
20260503035506 16 228 0.0 0.0 0.00 0.00 0.00 65 1011.9
20260503035006 17 228 0.0 0.0 0.00 0.00 0.00 65 1011.9
20260503034505 17 228 0.0 0.0 0.00 0.00 0.00 65 1011.8
20260503034007 17 228 0.0 0.0 0.00 0.00 0.00 64 1011.6
20260503033505 17 228 0.0 0.0 0.00 0.00 0.00 63 1011.5
20260503033007 17 95 0.0 0.0 0.00 0.00 0.00 63 1011.5
20260503032504 17 95 0.0 0.0 0.00 0.00 0.00 62 1011.4
20260503032007 17 95 0.0 0.0 0.00 0.00 0.00 61 1011.4
20260503031504 18 95 0.0 0.0 0.00 0.00 0.00 60 1011.3
20260503031004 18 95 0.0 0.0 0.00 0.00 0.00 60 1011.3
20260503030503 18 94 0.0 0.0 0.00 0.00 0.00 60 1011.3
20260503030004 18 76 0.0 0.0 0.00 0.00 0.00 60 1011.3
20260503025505 18 262 0.0 0.0 0.00 0.00 0.00 60 1011.2
20260503025003 19 114 0.0 0.0 0.00 0.00 0.00 60 1011.2
20260503024503 19 114 0.0 0.0 0.00 0.00 0.00 60 1011.1
20260503024003 20 114 0.0 0.0 0.00 0.00 0.00 59 1011.1
20260503023504 20 9 0.0 0.0 0.00 0.00 0.00 58 1011.1
20260503023005 20 135 0.0 0.0 0.00 0.00 0.00 56 1011.1
20260503022502 21 245 0.0 0.0 0.00 0.00 0.00 55 1011.1
20260503022002 21 246 0.0 0.0 0.00 0.00 0.00 55 1011.0
20260503021502 22 128 0.0 0.0 0.00 0.00 0.00 55 1011.0
20260503021002 22 132 0.0 0.0 0.00 0.00 0.00 54 1011.1
20260503020502 22 103 0.0 0.0 0.00 0.00 0.00 54 1011.1
20260503020002 23 124 0.0 0.0 0.00 0.00 0.00 52 1011.1
20260503015504 24 162 0.0 0.0 0.00 0.00 0.00 51 1011.0
20260503015005 25 124 0.0 3.2 0.00 0.00 0.00 51 1011.0
20260503014501 25 243 0.0 1.6 0.00 0.00 0.00 51 1011.1
20260503014001 25 211 0.0 0.0 0.00 0.00 0.00 52 1011.1
20260503013501 25 114 0.0 0.0 0.00 0.00 0.00 52 1011.1
20260503013002 26 110 0.0 0.0 0.00 0.00 0.00 51 1011.1
20260503012600 26 131 0.0 0.0 0.00 0.00 0.00 50 1011.1
20260503012100 26 211 0.0 0.0 0.00 0.00 0.00 50 1011.2
20260503011600 26 239 0.0 0.0 0.00 0.00 0.00 50 1011.0
20260503011500 26 242 0.0 0.0 0.00 0.00 0.00 49 1011.1
20260503011101 26 132 0.0 0.0 0.00 0.00 0.00 48 1011.0
20260503010601 26 204 0.0 0.0 0.00 0.00 0.00 49 1011.0
20260503010058 26 115 0.0 0.0 0.00 0.00 0.00 49 1011.0
20260503005605 27 78 0.0 0.0 0.00 0.00 0.00 50 1011.1
20260503005058 27 92 0.0 0.0 0.00 0.00 0.00 48 1011.1
20260503004605 27 153 0.0 0.0 0.00 0.00 0.00 49 1011.2
20260503004056 27 281 0.0 0.0 0.00 0.00 0.00 48 1011.2
20260503003555 27 193 0.0 0.0 0.00 0.00 0.00 49 1011.2
20260503003055 26 102 0.0 0.0 0.00 0.00 0.00 50 1011.2
20260503002557 26 243 0.0 0.0 0.00 0.00 0.00 47 1011.3
20260503002054 26 252 0.0 0.0 0.00 0.00 0.00 49 1011.3
20260503001556 26 187 0.0 0.0 0.00 0.00 0.00 50 1011.3
20260503001057 26 256 0.0 1.6 0.00 0.00 0.00 48 1011.3
20260503000553 26 270 0.0 1.6 0.00 0.00 0.00 49 1011.3
20260503000057 26 238 0.0 0.0 0.00 0.00 0.00 50 1011.4
20260502235551 26 71 0.0 0.0 0.00 0.00 0.00 49 1011.4
20260502235051 26 201 0.0 0.0 0.00 0.00 0.00 51 1011.4
20260502234602 26 240 0.0 0.0 0.00 0.00 0.00 50 1011.5
20260502234050 26 172 0.0 0.0 0.00 0.00 0.00 49 1011.5
20260502233550 26 131 0.0 0.0 0.00 0.00 0.00 51 1011.6
20260502233049 26 117 0.0 0.0 0.00 0.00 0.00 50 1011.7
20260502232548 26 125 0.0 0.0 0.00 0.00 0.00 51 1011.8
20260502232047 26 97 0.0 1.6 0.00 0.00 0.00 48 1011.8
20260502231546 26 125 0.0 0.0 0.00 0.00 0.00 49 1012.0
20260502231046 27 117 0.0 0.0 0.00 0.00 0.00 49 1012.0
20260502230545 27 153 0.0 0.0 0.00 0.00 0.00 49 1012.1
20260502230044 26 233 0.0 0.0 0.00 0.00 0.00 51 1012.1
20260502225547 26 124 0.0 0.0 0.00 0.00 0.00 51 1012.2